Location: Veyrier
(46.1830°N, 6.2000°E)
Time: 14:20:36
(UTC+01:00)

Daily predictions for brighter satellites

Satellite Brightness Start Highest point End
(mag) Time Altitude Azimuth Time Altitude Azimuth Time Altitude Azimuth
Cosmos 1500 Rocket 3.5 17:56:55 10° S 18:01:16 85° E 18:05:40 10° N
Cosmos 1328 3.7 18:00:00 10° S 18:03:56 77° E 18:07:53 10° NNE
SL-16 R/B 2.9 17:59:16 10° S 18:04:19 35° ESE 18:09:23 10° NE
Meteor 1-27 4.3 17:59:38 10° N 18:05:26 63° ENE 18:11:13 10° SSE
Sich 1 4.4 18:03:06 10° SE 18:06:18 20° E 18:09:29 10° NE
Cosmos 1634 Rocket 4.1 18:01:29 10° N 18:07:42 85° W 18:13:52 10° S
COSMOS 2428 4.0 18:02:28 10° SW 18:07:49 40° NW 18:13:12 10° NNE
Cosmos 372 Rocket 4.1 18:04:11 10° NNW 18:09:18 80° WSW 18:14:23 10° SSE
Cosmos 540 Rocket 3.5 18:08:15 10° SSW 18:13:25 88° ESE 18:18:37 10° NNE
Cosmos 2297 3.7 18:09:25 10° NNW 18:15:09 74° ENE 18:20:52 10° SSE
Lacrosse 5 3.3 18:11:11 10° NW 18:15:18 24° N 18:19:25 10° NE
Cosmos 1703 4.0 18:12:13 10° SSE 18:15:42 32° E 18:19:13 10° NNE
Cosmos 1900 4.3 18:11:02 10° NNW 18:16:01 82° NE 18:21:01 10° SE
Cosmos 1633 Rocket 4.2 18:14:15 10° SE 18:17:39 22° E 18:21:04 10° NE
Cosmos 1300 3.2 18:15:50 10° NNW 18:19:39 64° W 18:23:26 10° S
Cosmos 44 3.7 18:15:30 10° SW 18:20:42 67° NW 18:25:40 10° NNE
IDEFIX/ARIANE 42P 3.5 18:17:32 10° S 18:22:37 53° W 18:27:47 10° NNW
SJ-6B 4.0 18:19:58 10° ESE 18:23:20 24° ENE 18:26:42 10° NNE
CENTAUR R/B 3.7 18:18:13 10° WSW 18:24:09 40° NW 18:30:52 10° NNE
CZ-4 R/B 3.0 18:22:06 10° SSW 18:25:45 38° W 18:29:27 10° NNW
ALOS 3.5 18:26:35 10° ESE 18:29:59 20° ENE 18:33:24 10° NNE
NOAA 12 4.4 18:27:27 10° SE 18:32:24 44° ENE 18:37:24 10° N
USA 116 4.2 18:29:34 10° N 18:32:36 45° WNW 18:35:34 10° SSW
CZ-2C R/B 3.9 18:30:17 10° SSW 18:34:53 39° W 18:39:22 10° NNW
USA 229 DEB 4.3 18:30:45 10° S 18:36:52 36° ESE 18:42:02 14° NE
USA 229 4.3 18:30:52 10° S 18:36:59 36° ESE 18:42:05 15° ENE
Cosmos 2151 3.5 18:33:55 10° SSW 18:38:03 59° WNW 18:42:14 10° N
Coronas F rocket 3.3 18:36:24 10° SE 18:36:51 13° SE 18:36:51 13° SE
ATLAS 5 CENTAUR R/B 3.6 18:36:16 10° NNW 18:40:31 21° NNE 18:43:10 16° ENE
Cosmos 1707 Rocket 3.4 18:36:48 10° N 18:41:09 68° E 18:45:27 10° SSE
Cosmos 2084 Rocket 4.4 18:38:36 10° NNW 18:41:44 24° NE 18:42:53 21° ENE
Aureole 2 Rocket 3.4 18:38:12 10° SW 18:42:01 58° WNW 18:46:09 10° NNE
SL-14 R/B 4.2 18:38:44 10° SSW 18:42:35 50° WNW 18:46:30 10° N
Cosmos 1484 Rocket 3.2 18:39:43 10° S 18:43:39 67° W 18:47:39 10° NNW
COSMO-SKYMED 1 2.5 18:39:48 10° NNE 18:44:10 72° ESE 18:48:29 10° S
Meteor 1-28 Rocket 3.3 18:40:38 10° NNE 18:44:16 49° E 18:47:53 10° S
Cosmos 1980 4.5 18:38:46 10° SW 18:44:18 52° WNW 18:49:51 10° NNE
YAOGAN 1 4.2 18:40:40 10° SSW 18:44:41 38° W 18:48:45 10° NNW
Cosmos 1340 Rocket 3.0 18:44:33 10° SSW 18:48:28 72° W 18:52:24 10° N
CZ-4C R/B 4.0 18:47:21 10° NNW 18:52:29 23° NNE 18:55:33 18° NE
Cosmos 2279 Rocket 4.4 18:46:53 10° NNW 18:53:02 66° W 18:59:12 10° S
Cosmos 1666 Rocket 3.5 18:49:58 10° S 18:54:15 63° E 18:58:37 10° NNE
Cosmos 1943 Rocket 3.6 18:54:20 10° N 18:58:06 18° NE 18:58:18 18° NE
Abrixas 2.5 18:56:58 10° W 18:59:53 64° NNW 19:00:33 45° NE
Cosmos 2219 Rocket 3.9 18:55:14 10° WSW 19:00:05 29° NW 19:04:58 10° N
Cosmos 1869 3.4 18:56:23 10° N 19:00:22 52° ENE 19:04:19 10° SSE
Lacrosse 4 Rocket 1.2 18:57:45 10° NNW 19:01:50 82° ENE 19:05:53 10° SSE
TIMED 4.4 18:59:42 10° NNW 19:04:06 77° ENE 19:08:28 10° SSE
Cosmos 1933 Rocket 4.2 19:01:55 10° SSE 19:05:53 33° E 19:06:21 32° ENE
Resurs 1-3 4.3 19:07:14 32° ENE 19:07:20 32° ENE 19:11:15 10° N
Resurs 01 Rocket 2.0 19:04:55 10° SE 19:09:03 40° ENE 19:13:12 10° N
Aureole 1 Rocket 4.0 19:03:30 10° S 19:09:08 64° ESE 19:16:31 10° NNE
Cosmos 1603 4.0 19:03:55 10° S 19:09:09 42° ESE 19:11:40 27° NE
Cosmos 2333 Rocket 3.8 19:05:08 10° WSW 19:10:04 31° NW 19:15:05 10° N
Cosmos 1626 2.4 19:08:01 10° SSW 19:11:44 69° W 19:15:30 10° N
Iridium 4 Rocket 3.1 19:08:02 10° SSE 19:12:17 51° E 19:16:21 10° NNE
Spot 2 Rocket 3.7 19:08:13 10° SE 19:13:01 46° ENE 19:17:50 10° N
Nadezhda 4 Rocket 3.9 19:08:45 10° S 19:15:02 85° E 19:21:24 10° N
FengYun 1-2 T 4.2 19:11:08 10° SSE 19:16:32 57° ENE 19:21:56 10° N
Cosmos 2026 Rocket 4.3 19:13:06 10° SSE 19:18:46 39° E 19:24:22 10° NNE
Cosmos 1470 Rocket 3.5 19:23:08 10° S 19:27:23 59° E 19:28:04 51° NE
Cosmos 1184 Rocket 3.5 19:24:30 10° SSW 19:27:46 54° WNW 19:29:27 25° N
Cosmos 1461 4.0 19:24:05 10° WSW 19:27:59 39° NW 19:29:58 23° N
NOSS 3-1 (C) 4.2 19:23:10 10° S 19:27:35 29° ESE 19:27:35 29° ESE
Cosmos 972 Rocket 4.1 19:28:14 10° NNW 19:33:24 57° ENE 19:35:39 34° SE
Blok-2BL 3.6 19:30:47 10° NW 19:33:47 62° W 19:33:47 62° W
Cosmos 1455 3.8 19:31:35 10° NNW 19:35:06 36° W 19:38:36 10° SSW
Cosmos 1242 Rocket 2.6 19:32:50 10° NNW 19:36:20 69° W 19:37:50 31° S
Cosmos 2242 Rocket 4.1 19:32:06 10° NNW 19:36:28 61° W 19:40:51 10° S
ATLAS 3B R/B 3.9 19:32:00 10° NNW 19:37:29 23° NNE 19:38:31 22° NNE
Cosmos 1092 Rocket 4.0 19:31:52 10° S 19:38:13 88° WNW 19:44:36 10° N
USA 215 3.2 19:34:36 24° SE 19:38:53 84° SW 19:45:29 10° NW
FREGAT/IRIS 3.9 19:36:13 10° S 19:39:08 41° W 19:42:04 10° NNW
Cosmos 923 Rocket 3.8 19:34:25 10° SSW 19:39:37 81° ESE 19:41:42 37° NNE
Cosmos 2237 Rocket 4.1 19:35:09 10° WSW 19:39:42 25° NW 19:44:18 10° N
Cosmos 1371 Rocket 4.2 19:35:04 10° NNW 19:39:38 48° NE 19:39:38 48° NE
Cosmos 1553 Rocket 4.2 19:34:33 10° N 19:40:18 44° ENE 19:40:18 44° ENE
Cosmos 2369 Rocket 2.2 19:34:54 10° NNW 19:40:31 59° ENE 19:41:28 51° E
Sich 1 4.3 19:39:27 10° SSW 19:43:40 42° WNW 19:47:54 10° N
Cosmos 1680 Rocket 3.3 19:40:32 10° SSW 19:45:43 71° ESE 19:46:35 59° NE
SL-16 R/B 3.3 19:43:02 10° SW 19:48:20 41° NW 19:53:00 13° NNE
Tiangong 1 4.0 19:47:40 10° SSW 19:47:54 11° SSW 19:47:54 11° SSW
Cosmos 1867 3.7 19:49:14 10° NNW 19:54:18 58° NNE 19:54:18 58° NNE
Lacrosse 5 3.0 19:54:54 10° NW 19:58:42 32° N 19:58:42 32° N
Cosmos 2195 Rocket 4.3 19:54:30 10° S 20:00:37 90° W 20:06:50 10° N
ALOS 3.0 20:02:31 10° S 20:07:04 52° W 20:11:39 10° NNW
Meteor 1-26 Rocket 4.3 20:01:53 10° N 20:06:41 61° NNE 20:06:41 61° NNE
FENGYUN 3A 4.1 20:02:45 10° S 20:08:02 58° W 20:13:22 10° NNW
CENTAUR R/B 4.5 20:11:57 10° NW 20:16:59 21° N 20:19:24 18° NNE
Cosmos 292 Rocket 4.5 20:13:57 10° SW 20:18:33 50° WNW 20:18:38 50° WNW
BREEZE-M DEB (TANK) 3.9 20:06:56 10° WNW 20:20:27 74° N 20:20:27 74° N
Cosmos 2112 Rocket 4.3 20:17:21 10° SSW 20:21:59 62° WSW 20:21:59 62° WSW
Cosmos 1943 4.2 20:19:34 10° SSW 20:22:53 37° SSW 20:22:53 37° SSW
ATLAS 5 CENTAUR R/B 2.9 20:20:29 10° NW 20:24:45 47° N 20:24:45 47° N
USA 229 DEB 4.1 20:20:48 10° WSW 20:27:33 58° NW 20:29:31 44° N
USA 229 4.1 20:20:53 10° WSW 20:27:39 58° NW 20:29:35 44° N
Cosmos 1655 Rocket 4.3 20:32:10 10° SSW 20:38:30 64° WNW 20:44:49 10° N
CZ-4C R/B 3.3 20:35:41 10° NW 20:40:46 46° N 20:40:46 46° N
Cosmos 1943 Rocket 3.5 20:37:06 10° NNW 20:39:52 31° NNW 20:39:52 31° NNW
Resurs 01 Rocket 3.9 20:42:25 11° SW 20:45:40 23° W 20:49:12 10° NW
Cosmos 2369 Rocket 4.3 21:19:45 10° NW 21:23:20 23° W 21:23:20 23° W
ATLAS 3B R/B 4.3 21:22:51 10° NW 21:25:47 26° NNW 21:25:47 26° NNW
